HK6REC-23 Weather Reports


time (UTC)temp
C
wind
direction
speed
KPH
gust
KPH
rain 1hr
cm
rain 24hr
cm
rain mn
cm
humidity
%
barometer
mb
20260505181005 22 201 1.6 3.2 0.00 0.00 0.00 74 1012.0
20260505180004 20 201 1.6 3.2 0.00 0.00 0.00 72 1012.0
20260505175003 20 201 1.6 3.2 0.00 0.00 0.00 72 1012.0
20260505174002 21 189 1.6 1.6 0.00 0.00 0.00 72 1012.0
20260505173001 22 189 1.6 3.2 0.00 0.00 0.00 72 1012.0
20260505172000 20 173 1.6 1.6 0.00 0.00 0.00 74 1013.0
20260505170959 22 173 3.2 3.2 0.00 0.00 0.00 74 1012.0
20260505165958 20 173 1.6 1.6 0.00 0.00 0.00 71 1012.0
20260505164957 22 173 3.2 3.2 0.00 0.00 0.00 71 1012.0
20260505163956 20 152 1.6 1.6 0.00 0.00 0.00 76 1013.0
20260505162955 22 152 3.2 3.2 0.00 0.00 0.00 76 1014.0
20260505161954 20 152 1.6 1.6 0.00 0.00 0.00 75 1014.0
20260505160953 21 152 3.2 3.2 0.00 0.00 0.00 75 1013.0
20260505152949 19 135 1.6 1.6 0.00 0.00 0.00 82 1014.0
20260505151948 21 135 3.2 3.2 0.00 0.00 0.00 82 1014.0
20260505150947 18 135 1.6 1.6 0.00 0.00 0.00 80 1014.0
20260505124934 15 101 1.6 1.6 0.00 0.00 0.00 95 1015.0
20260505123933 17 101 1.6 1.6 0.00 0.00 0.00 95 1015.0
20260505122932 13 59 0.0 0.0 0.00 0.00 0.00 95 1015.0
20260505121931 15 59 0.0 0.0 0.00 0.00 0.00 95 1015.0
20260505120930 13 59 0.0 0.0 0.00 0.00 0.00 95 1015.0
20260505115929 15 59 0.0 0.0 0.00 0.00 0.00 95 1015.0
20260505114928 13 59 0.0 0.0 0.00 0.00 0.00 94 1015.0
20260505113927 15 80 0.0 1.6 0.00 0.00 0.00 94 1015.0
20260505112926 11 287 0.0 1.6 0.00 0.00 0.00 95 1015.0
20260505111925 11 287 0.0 1.6 0.00 0.00 0.00 95 1015.0
20260505110924 12 287 0.0 1.6 0.00 0.00 0.00 95 1015.0
20260505101919 11 284 1.6 1.6 0.00 0.00 0.00 95 1014.0
20260505100918 12 284 1.6 1.6 0.00 0.00 0.00 95 1014.0
20260505095917 14 284 1.6 1.6 0.00 0.00 0.00 95 1014.0
20260505094916 12 284 1.6 1.6 0.00 0.00 0.00 95 1014.0
20260505093915 14 284 1.6 1.6 0.00 0.00 0.00 95 1014.0
20260505092914 11 286 1.6 1.6 0.00 0.00 0.00 94 1014.0
20260505091913 11 286 1.6 1.6 0.00 0.00 0.00 94 1014.0
20260505090912 12 286 1.6 1.6 0.00 0.00 0.00 94 1014.0
20260505085911 14 286 1.6 1.6 0.00 0.00 0.00 94 1014.0
20260505084910 12 286 1.6 1.6 0.00 0.00 0.00 94 1014.0
20260505083909 14 286 1.6 1.6 0.00 0.00 0.00 94 1014.0
20260505082908 11 268 1.6 0.0 0.00 0.00 0.00 91 1014.0
20260505081907 11 268 1.6 0.0 0.00 0.00 0.00 91 1014.0
20260505080906 11 268 1.6 0.0 0.00 0.00 0.00 91 1014.0
20260505075905 12 268 1.6 0.0 0.00 0.00 0.00 91 1014.0
20260505074904 12 268 1.6 0.0 0.00 0.00 0.00 91 1014.0
20260505073903 13 268 1.6 0.0 0.00 0.00 0.00 91 1014.0
20260505072902 15 288 0.0 0.0 0.00 0.00 0.00 91 1014.0
20260505071901 13 288 0.0 0.0 0.00 0.00 0.00 92 1014.0
20260505070900 15 288 0.0 0.0 0.00 0.00 0.00 92 1014.0
20260505065859 12 288 0.0 0.0 0.00 0.00 0.00 94 1014.0
20260505064858 12 288 0.0 0.0 0.00 0.00 0.00 94 1014.0
20260505063857 12 288 0.0 0.0 0.00 0.00 0.00 94 1014.0
20260505062856 13 282 0.0 1.6 0.00 0.00 0.00 94 1015.0
20260505061855 13 282 0.0 1.6 0.00 0.00 0.00 94 1015.0
20260505060854 13 282 0.0 1.6 0.00 0.00 0.00 94 1015.0
20260505055853 12 26 1.6 1.6 0.00 0.00 0.00 94 1015.0
20260505054852 14 26 1.6 1.6 0.00 0.00 0.00 94 1015.0
20260505053851 16 26 1.6 3.2 0.00 0.00 0.00 94 1015.0
20260505052850 12 24 1.6 1.6 0.00 0.00 0.00 94 1016.0
20260505051849 12 24 1.6 1.6 0.00 0.00 0.00 94 1016.0
20260505050848 13 24 1.6 1.6 0.00 0.00 0.00 94 1016.0
20260505040842 12 11 1.6 0.0 0.00 0.00 0.00 91 1016.0
20260505035841 13 11 1.6 0.0 0.00 0.00 0.00 91 1016.0
20260505034840 13 11 1.6 0.0 0.00 0.00 0.00 91 1016.0
20260505033839 13 11 1.6 0.0 0.00 0.00 0.00 91 1016.0
20260505032838 13 291 1.6 0.0 0.00 0.00 0.00 88 1016.0
20260505031837 15 291 1.6 0.0 0.00 0.00 0.00 88 1016.0
20260505030836 16 291 1.6 0.0 0.00 0.00 0.00 88 1015.0
20260505025835 13 291 1.6 0.0 0.00 0.00 0.00 88 1015.0
20260505024834 13 291 1.6 0.0 0.00 0.00 0.00 88 1015.0
20260505023833 13 291 1.6 0.0 0.00 0.00 0.00 88 1015.0
20260505022832 14 312 1.6 1.6 0.00 0.00 0.00 88 1015.0
20260505021832 14 312 1.6 1.6 0.00 0.00 0.00 88 1015.0
20260505020831 14 312 1.6 1.6 0.00 0.00 0.00 88 1015.0
20260505015829 13 312 1.6 1.6 0.00 0.00 0.00 91 1015.0
20260505014829 15 312 1.6 1.6 0.00 0.00 0.00 91 1015.0
20260505013828 16 312 1.6 1.6 0.00 0.00 0.00 91 1015.0
20260505012827 12 316 3.2 4.8 0.00 0.00 0.00 89 1014.0
20260505011826 12 316 3.2 4.8 0.00 0.00 0.00 89 1014.0
20260505010825 12 316 3.2 4.8 0.00 0.00 0.00 89 1014.0
20260505005824 13 316 3.2 4.8 0.00 0.00 0.00 89 1014.0
20260505004823 13 316 3.2 4.8 0.00 0.00 0.00 89 1014.0
20260505003822 13 316 3.2 4.8 0.00 0.00 0.00 89 1014.0
20260505002821 15 327 3.2 4.8 0.00 0.00 0.00 89 1013.0
20260505001820 15 327 3.2 4.8 0.00 0.00 0.00 89 1013.0
20260505000819 15 327 3.2 4.8 0.00 0.00 0.00 89 1013.0
20260504235818 13 336 1.6 1.6 0.00 0.00 0.00 87 1013.0
20260504234817 15 336 1.6 1.6 0.00 0.00 0.00 87 1013.0
20260504233816 17 336 1.6 3.2 0.00 0.00 0.00 87 1013.0
20260504232815 13 250 1.6 1.6 0.00 0.00 0.00 76 1013.0
20260504231814 13 250 1.6 1.6 0.00 0.00 0.00 76 1013.0
20260504230813 13 250 1.6 1.6 0.00 0.00 0.00 76 1012.0
20260504225812 15 250 1.6 1.6 0.00 0.00 0.00 76 1012.0
20260504224811 15 250 1.6 1.6 0.00 0.00 0.00 76 1012.0
20260504223810 15 250 1.6 1.6 0.00 0.00 0.00 76 1012.0
20260504222809 14 209 1.6 6.4 0.00 0.00 0.00 76 1011.0
20260504221808 16 209 1.6 6.4 0.00 0.00 0.00 76 1011.0
20260504220807 15 209 1.6 6.4 0.00 0.00 0.00 76 1011.0
20260504215807 17 209 1.6 6.4 0.00 0.00 0.00 76 1011.0
20260504214805 15 209 1.6 6.4 0.00 0.00 0.00 76 1011.0
20260504213805 17 209 1.6 6.4 0.00 0.00 0.00 76 1011.0
20260504212804 16 240 1.6 8.0 0.00 0.00 0.00 76 1010.0
20260504211803 18 240 1.6 8.0 0.00 0.00 0.00 76 1010.0
20260504210802 17 240 1.6 8.0 0.00 0.00 0.00 76 1010.0
20260504205801 19 240 1.6 8.0 0.00 0.00 0.00 76 1010.0
20260504204800 17 242 1.6 4.8 0.00 0.00 0.00 76 1010.0
20260504203759 18 242 1.6 4.8 0.00 0.00 0.00 76 1010.0
20260504202758 20 242 1.6 4.8 0.00 0.00 0.00 76 1009.0
20260504201757 18 242 1.6 4.8 0.00 0.00 0.00 76 1009.0
20260504200756 20 242 1.6 4.8 0.00 0.00 0.00 76 1009.0
20260504195755 18 242 1.6 4.8 0.00 0.00 0.00 76 1009.0
20260504194754 20 242 1.6 4.8 0.00 0.00 0.00 76 1009.0
20260504193753 21 242 1.6 4.8 0.00 0.00 0.00 76 1010.0
20260504192752 19 229 1.6 1.6 0.00 0.00 0.00 76 1010.0
20260504191751 21 229 1.6 1.6 0.00 0.00 0.00 76 1010.0
20260504190750 22 229 1.6 3.2 0.00 0.00 0.00 76 1010.0
20260504185749 20 229 1.6 1.6 0.00 0.00 0.00 74 1010.0
20260504184748 21 229 1.6 3.2 0.00 0.00 0.00 74 1010.0
20260504183747 20 203 1.6 1.6 0.00 0.00 0.00 74 1010.0
20260504182746 22 203 1.6 3.2 0.00 0.00 0.00 74 1011.0
20260504181745 21 203 1.6 1.6 0.00 0.00 0.00 71 1011.0